Time,TemperatureF,DewpointF,PressureIn,WindDirection,WindDirectionDegrees,WindSpeedMPH,WindSpeedGustMPH,Humidity,HourlyPrecipIn,Conditions,Clouds,dailyrainin,SoftwareType,DateUTC
2013-06-11 00:02:00,50.0,47.0,29.95,NW,315,0.0,1.0,91,0.00,,,0.00,,2013-06-11 07:02:00,
2013-06-11 00:12:00,50.0,47.0,29.96,North,-999,0.0,0.0,90,0.00,,,0.00,,2013-06-11 07:12:00,
2013-06-11 00:21:00,50.0,47.0,29.96,North,-999,0.0,0.0,90,0.00,,,0.00,,2013-06-11 07:21:00,
2013-06-11 00:32:00,50.0,47.0,29.96,ENE,67,0.0,3.0,91,0.00,,,0.00,,2013-06-11 07:32:00,
2013-06-11 00:42:00,50.0,47.0,29.96,WNW,292,0.0,1.0,90,0.00,,,0.00,,2013-06-11 07:42:00,
2013-06-11 00:52:00,50.0,47.0,29.96,WNW,292,0.0,1.0,90,0.00,,,0.00,,2013-06-11 07:52:00,
2013-06-11 01:02:00,51.0,48.0,29.97,West,270,0.0,2.0,89,0.00,,,0.00,,2013-06-11 08:02:00,
2013-06-11 01:11:00,51.0,48.0,29.97,West,270,0.0,2.0,89,0.00,,,0.00,,2013-06-11 08:11:00,
2013-06-11 01:22:00,51.0,48.0,29.97,SW,225,0.0,2.0,88,0.00,,,0.00,,2013-06-11 08:22:00,
2013-06-11 01:32:00,51.0,48.0,29.97,North,-999,0.0,0.0,88,0.00,,,0.00,,2013-06-11 08:32:00,
2013-06-11 01:41:00,51.0,47.0,29.97,North,-999,0.0,0.0,87,0.00,,,0.00,,2013-06-11 08:41:00,
2013-06-11 01:52:00,51.0,47.0,29.97,North,-999,0.0,0.0,87,0.00,,,0.00,,2013-06-11 08:52:00,
2013-06-11 02:02:00,51.0,48.0,29.97,SSW,202,0.0,1.0,88,0.00,,,0.00,,2013-06-11 09:02:00,
2013-06-11 02:11:00,51.0,48.0,29.97,SSW,202,0.0,1.0,88,0.00,,,0.00,,2013-06-11 09:11:00,
2013-06-11 02:21:00,51.0,47.0,29.97,ESE,112,0.0,1.0,87,0.00,,,0.00,,2013-06-11 09:21:00,
2013-06-11 02:33:00,51.0,47.0,29.97,North,-999,0.0,0.0,87,0.00,,,0.00,,2013-06-11 09:33:00,
2013-06-11 02:43:00,51.0,48.0,29.97,North,-999,0.0,0.0,88,0.00,,,0.00,,2013-06-11 09:43:00,
2013-06-11 02:53:00,51.0,48.0,29.97,North,-999,0.0,0.0,88,0.00,,,0.00,,2013-06-11 09:53:00,
2013-06-11 03:03:00,51.0,47.0,29.97,North,-999,0.0,0.0,87,0.00,,,0.00,,2013-06-11 10:03:00,
2013-06-11 03:12:00,51.0,47.0,29.97,North,-999,0.0,0.0,87,0.00,,,0.00,,2013-06-11 10:12:00,
2013-06-11 03:22:00,51.0,48.0,29.97,North,-999,0.0,0.0,89,0.00,,,0.00,,2013-06-11 10:22:00,
2013-06-11 03:33:00,50.0,47.0,29.98,North,-999,0.0,0.0,91,0.00,,,0.00,,2013-06-11 10:33:00,
2013-06-11 03:52:00,50.0,48.0,29.98,North,-999,0.0,0.0,92,0.00,,,0.00,,2013-06-11 10:52:00,
2013-06-11 04:02:00,50.0,48.0,29.98,North,-999,0.0,0.0,93,0.00,,,0.00,,2013-06-11 11:02:00,
2013-06-11 04:11:00,50.0,48.0,29.98,North,-999,0.0,0.0,93,0.00,,,0.00,,2013-06-11 11:11:00,
2013-06-11 04:22:00,50.0,48.0,29.98,North,-999,0.0,0.0,93,0.00,,,0.00,,2013-06-11 11:22:00,
2013-06-11 04:32:00,50.0,48.0,29.98,North,-999,0.0,0.0,94,0.00,,,0.00,,2013-06-11 11:32:00,
2013-06-11 04:41:00,50.0,48.0,29.98,North,-999,0.0,0.0,94,0.00,,,0.00,,2013-06-11 11:41:00,
2013-06-11 04:52:00,50.0,48.0,29.98,North,-999,0.0,0.0,94,0.00,,,0.00,,2013-06-11 11:52:00,
2013-06-11 05:02:00,50.0,48.0,29.98,North,-999,0.0,0.0,94,0.00,,,0.00,,2013-06-11 12:02:00,
2013-06-11 05:11:00,50.0,48.0,29.98,North,-999,0.0,0.0,94,0.00,,,0.00,,2013-06-11 12:11:00,
2013-06-11 05:21:00,50.0,48.0,29.98,North,-999,0.0,0.0,94,0.00,,,0.00,,2013-06-11 12:21:00,
2013-06-11 05:32:00,50.0,48.0,29.98,North,-999,0.0,0.0,94,0.00,,,0.00,,2013-06-11 12:32:00,
2013-06-11 05:42:00,50.0,48.0,29.98,North,-999,0.0,0.0,94,0.00,,,0.00,,2013-06-11 12:42:00,
2013-06-11 05:52:00,50.0,48.0,29.98,North,-999,0.0,0.0,94,0.00,,,0.00,,2013-06-11 12:52:00,
2013-06-11 06:02:00,50.0,48.0,29.99,North,-999,0.0,0.0,94,0.00,,,0.00,,2013-06-11 13:02:00,
2013-06-11 06:11:00,50.0,48.0,29.99,North,-999,0.0,0.0,94,0.00,,,0.00,,2013-06-11 13:11:00,
2013-06-11 06:22:00,50.0,49.0,29.99,North,-999,0.0,0.0,95,0.00,,,0.00,,2013-06-11 13:22:00,
2013-06-11 06:32:00,50.0,48.0,30.00,North,0,0.0,1.0,94,0.00,,,0.00,,2013-06-11 13:32:00,
2013-06-11 06:42:00,50.0,48.0,30.00,North,0,0.0,1.0,94,0.00,,,0.00,,2013-06-11 13:42:00,
2013-06-11 06:52:00,50.0,48.0,30.00,SW,225,0.0,1.0,92,0.00,,,0.00,,2013-06-11 13:52:00,
2013-06-11 07:02:00,50.0,47.0,30.01,WNW,292,0.0,2.0,91,0.00,,,0.00,,2013-06-11 14:02:00,
2013-06-11 07:11:00,50.0,47.0,30.01,WNW,292,0.0,2.0,91,0.00,,,0.00,,2013-06-11 14:11:00,
2013-06-11 07:21:00,51.0,48.0,30.01,North,-999,0.0,0.0,89,0.00,,,0.00,,2013-06-11 14:21:00,
2013-06-11 07:32:00,51.0,48.0,30.01,North,-999,0.0,0.0,89,0.00,,,0.00,,2013-06-11 14:32:00,
2013-06-11 07:42:00,51.0,47.0,30.01,North,-999,0.0,0.0,87,0.00,,,0.00,,2013-06-11 14:42:00,
2013-06-11 07:52:00,51.0,47.0,30.01,North,-999,0.0,0.0,87,0.00,,,0.00,,2013-06-11 14:52:00,
2013-06-11 08:02:00,51.0,48.0,30.01,North,-999,0.0,0.0,88,0.00,,,0.00,,2013-06-11 15:02:00,
2013-06-11 08:11:00,51.0,48.0,30.01,North,0,0.0,1.0,88,0.00,,,0.00,,2013-06-11 15:11:00,
2013-06-11 08:22:00,51.0,48.0,30.01,North,0,0.0,1.0,88,0.00,,,0.00,,2013-06-11 15:22:00,
2013-06-11 08:32:00,52.0,47.0,30.01,ENE,67,1.0,4.0,83,0.00,,,0.00,,2013-06-11 15:32:00,
2013-06-11 08:42:00,52.0,46.0,30.02,West,270,1.0,5.0,81,0.00,,,0.00,,2013-06-11 15:42:00,
2013-06-11 08:53:00,52.0,46.0,30.02,West,270,1.0,5.0,81,0.00,,,0.00,,2013-06-11 15:53:00,
2013-06-11 09:02:00,52.0,46.0,30.02,SW,225,1.0,6.0,80,0.00,,,0.00,,2013-06-11 16:02:00,
2013-06-11 09:12:00,52.0,46.0,30.02,SW,225,1.0,6.0,80,0.00,,,0.00,,2013-06-11 16:12:00,
2013-06-11 09:22:00,53.0,47.0,30.02,ENE,67,0.0,4.0,80,0.00,,,0.00,,2013-06-11 16:22:00,
2013-06-11 09:32:00,53.0,46.0,30.02,NNE,22,1.0,5.0,78,0.00,,,0.00,,2013-06-11 16:32:00,
2013-06-11 09:42:00,53.0,46.0,30.02,West,270,1.0,2.0,77,0.00,,,0.00,,2013-06-11 16:42:00,
2013-06-11 09:52:00,53.0,46.0,30.02,West,270,1.0,2.0,77,0.00,,,0.00,,2013-06-11 16:52:00,
2013-06-11 10:02:00,53.0,47.0,30.03,NNE,22,1.0,3.0,81,0.00,,,0.00,,2013-06-11 17:02:00,
2013-06-11 10:12:00,53.0,47.0,30.03,NNE,22,1.0,3.0,81,0.00,,,0.00,,2013-06-11 17:12:00,
2013-06-11 10:22:00,54.0,47.0,30.02,NW,315,0.0,2.0,77,0.00,,,0.00,,2013-06-11 17:22:00,
2013-06-11 10:32:00,54.0,48.0,30.02,WSW,247,0.0,3.0,79,0.00,,,0.00,,2013-06-11 17:32:00,
2013-06-11 10:42:00,55.0,46.0,30.03,WNW,292,2.0,6.0,72,0.00,,,0.00,,2013-06-11 17:42:00,
2013-06-11 10:52:00,55.0,46.0,30.03,WNW,292,2.0,6.0,72,0.00,,,0.00,,2013-06-11 17:52:00,
2013-06-11 11:02:00,56.0,47.0,30.03,NNW,337,2.0,6.0,71,0.00,,,0.00,,2013-06-11 18:02:00,
2013-06-11 11:11:00,56.0,47.0,30.03,NNW,337,2.0,6.0,71,0.00,,,0.00,,2013-06-11 18:11:00,
2013-06-11 11:22:00,54.0,47.0,30.03,NNE,22,1.0,4.0,77,0.00,,,0.00,,2013-06-11 18:22:00,
2013-06-11 11:32:00,54.0,48.0,30.04,South,180,0.0,1.0,80,0.00,,,0.00,,2013-06-11 18:32:00,
2013-06-11 11:42:00,56.0,48.0,30.04,West,270,1.0,4.0,74,0.00,,,0.00,,2013-06-11 18:42:00,
2013-06-11 11:52:00,56.0,48.0,30.04,West,270,1.0,4.0,74,0.00,,,0.00,,2013-06-11 18:52:00,
2013-06-11 12:01:00,56.0,47.0,30.04,NNE,22,1.0,5.0,72,0.00,,,0.00,,2013-06-11 19:01:00,
2013-06-11 12:11:00,56.0,47.0,30.04,NNE,22,1.0,5.0,72,0.00,,,0.00,,2013-06-11 19:11:00,
2013-06-11 12:22:00,57.0,47.0,30.04,NNW,337,1.0,4.0,68,0.00,,,0.00,,2013-06-11 19:22:00,
2013-06-11 12:32:00,56.0,49.0,30.05,NE,45,1.0,4.0,76,0.00,,,0.00,,2013-06-11 19:32:00,
2013-06-11 12:42:00,57.0,48.0,30.05,NE,45,2.0,5.0,72,0.00,,,0.00,,2013-06-11 19:42:00,
2013-06-11 12:52:00,57.0,48.0,30.05,NE,45,2.0,5.0,72,0.00,,,0.00,,2013-06-11 19:52:00,
2013-06-11 13:02:00,58.0,48.0,30.05,ENE,67,1.0,5.0,70,0.00,,,0.00,,2013-06-11 20:02:00,
2013-06-11 13:12:00,58.0,48.0,30.05,ENE,67,1.0,5.0,70,0.00,,,0.00,,2013-06-11 20:12:00,
2013-06-11 13:21:00,58.0,49.0,30.05,NE,45,1.0,4.0,73,0.00,,,0.00,,2013-06-11 20:21:00,
2013-06-11 13:32:00,59.0,48.0,30.05,NE,45,2.0,8.0,67,0.00,,,0.00,,2013-06-11 20:32:00,
2013-06-11 13:42:00,59.0,48.0,30.05,NE,45,2.0,8.0,67,0.00,,,0.00,,2013-06-11 20:42:00,
2013-06-11 13:52:00,59.0,48.0,30.05,ENE,67,2.0,10.0,67,0.00,,,0.00,,2013-06-11 20:52:00,
2013-06-11 14:02:00,59.0,46.0,30.05,WNW,292,2.0,6.0,63,0.00,,,0.00,,2013-06-11 21:02:00,
2013-06-11 14:11:00,59.0,46.0,30.05,WNW,292,2.0,6.0,63,0.00,,,0.00,,2013-06-11 21:11:00,
2013-06-11 14:22:00,59.0,48.0,30.05,NW,315,1.0,4.0,66,0.00,,,0.00,,2013-06-11 21:22:00,
2013-06-11 14:32:00,58.0,46.0,30.06,West,270,1.0,7.0,65,0.00,,,0.00,,2013-06-11 21:32:00,
2013-06-11 14:42:00,58.0,46.0,30.06,West,270,1.0,7.0,65,0.00,,,0.00,,2013-06-11 21:42:00,
2013-06-11 14:53:00,58.0,45.0,30.06,East,90,0.0,2.0,62,0.00,,,0.00,,2013-06-11 21:53:00,
2013-06-11 15:03:00,58.0,47.0,30.06,NW,315,1.0,2.0,67,0.00,,,0.00,,2013-06-11 22:03:00,
2013-06-11 15:12:00,58.0,47.0,30.06,NW,315,1.0,2.0,67,0.00,,,0.00,,2013-06-11 22:12:00,
2013-06-11 15:22:00,58.0,45.0,30.06,West,270,0.0,1.0,63,0.00,,,0.00,,2013-06-11 22:22:00,
2013-06-11 15:32:00,58.0,49.0,30.07,ENE,67,1.0,3.0,73,0.00,,,0.00,,2013-06-11 22:32:00,
2013-06-11 15:42:00,58.0,49.0,30.07,ENE,67,1.0,3.0,73,0.00,,,0.00,,2013-06-11 22:42:00,
2013-06-11 15:52:00,55.0,50.0,30.07,ENE,67,0.0,1.0,83,0.00,,,0.00,,2013-06-11 22:52:00,
2013-06-11 16:02:00,55.0,51.0,30.07,ENE,67,0.0,1.0,86,0.01,,,0.01,,2013-06-11 23:02:00,
2013-06-11 16:11:00,55.0,52.0,30.07,SE,135,0.0,1.0,88,0.02,,,0.02,,2013-06-11 23:11:00,
2013-06-11 16:22:00,55.0,52.0,30.07,SE,135,0.0,1.0,88,0.02,,,0.02,,2013-06-11 23:22:00,
2013-06-11 16:32:00,55.0,52.0,30.07,ENE,67,0.0,1.0,89,0.02,,,0.02,,2013-06-11 23:32:00,
2013-06-11 16:42:00,55.0,52.0,30.07,ENE,67,0.0,2.0,91,0.02,,,0.02,,2013-06-11 23:42:00,
2013-06-11 16:52:00,55.0,52.0,30.07,ENE,67,0.0,2.0,91,0.02,,,0.02,,2013-06-11 23:52:00,
2013-06-11 17:01:00,56.0,53.0,30.07,ENE,67,0.0,2.0,91,0.01,,,0.02,,2013-06-12 00:01:00,
2013-06-11 17:11:00,57.0,53.0,30.07,NE,45,0.0,3.0,85,0.00,,,0.02,,2013-06-12 00:11:00,
2013-06-11 17:22:00,57.0,53.0,30.07,NE,45,0.0,3.0,85,0.00,,,0.02,,2013-06-12 00:22:00,
2013-06-11 17:31:00,57.0,53.0,30.07,ENE,67,0.0,1.0,86,0.00,,,0.02,,2013-06-12 00:31:00,
2013-06-11 17:42:00,57.0,53.0,30.07,ENE,67,0.0,1.0,86,0.00,,,0.02,,2013-06-12 00:42:00,
2013-06-11 17:52:00,56.0,53.0,30.07,East,90,0.0,1.0,89,0.02,,,0.04,,2013-06-12 00:52:00,
2013-06-11 18:02:00,55.0,52.0,30.08,North,-999,0.0,0.0,91,0.02,,,0.04,,2013-06-12 01:02:00,
2013-06-11 18:11:00,55.0,52.0,30.08,North,-999,0.0,0.0,91,0.02,,,0.04,,2013-06-12 01:11:00,
2013-06-11 18:22:00,55.0,53.0,30.07,North,-999,0.0,0.0,93,0.03,,,0.05,,2013-06-12 01:22:00,
2013-06-11 18:31:00,55.0,53.0,30.07,ENE,67,0.0,1.0,93,0.05,,,0.07,,2013-06-12 01:31:00,
2013-06-11 18:42:00,55.0,53.0,30.07,ENE,67,0.0,1.0,93,0.05,,,0.07,,2013-06-12 01:42:00,
2013-06-11 18:52:00,55.0,53.0,30.07,NNE,22,0.0,1.0,92,0.04,,,0.07,,2013-06-12 01:52:00,
2013-06-11 19:02:00,55.0,53.0,30.07,North,-999,0.0,0.0,93,0.03,,,0.07,,2013-06-12 02:02:00,
2013-06-11 19:11:00,55.0,53.0,30.07,North,-999,0.0,0.0,93,0.03,,,0.07,,2013-06-12 02:11:00,
2013-06-11 19:22:00,54.0,52.0,30.07,North,-999,0.0,0.0,93,0.02,,,0.07,,2013-06-12 02:22:00,
2013-06-11 19:32:00,54.0,52.0,30.07,SSE,157,0.0,1.0,93,0.00,,,0.07,,2013-06-12 02:32:00,
2013-06-11 19:42:00,53.0,51.0,30.07,North,-999,0.0,0.0,94,0.00,,,0.07,,2013-06-12 02:42:00,
2013-06-11 19:52:00,53.0,51.0,30.07,North,-999,0.0,0.0,94,0.00,,,0.07,,2013-06-12 02:52:00,
2013-06-11 20:01:00,53.0,52.0,30.08,SSW,202,0.0,1.0,95,0.00,,,0.07,,2013-06-12 03:01:00,
2013-06-11 20:11:00,53.0,51.0,30.08,North,-999,0.0,0.0,94,0.00,,,0.07,,2013-06-12 03:11:00,
2013-06-11 20:22:00,53.0,51.0,30.08,North,-999,0.0,0.0,94,0.00,,,0.07,,2013-06-12 03:22:00,
2013-06-11 20:32:00,53.0,52.0,30.08,North,-999,0.0,0.0,95,0.00,,,0.07,,2013-06-12 03:32:00,
2013-06-11 20:42:00,53.0,52.0,30.08,North,-999,0.0,0.0,95,0.00,,,0.07,,2013-06-12 03:42:00,
2013-06-11 20:53:00,53.0,51.0,30.08,North,-999,0.0,0.0,94,0.00,,,0.07,,2013-06-12 03:53:00,
2013-06-11 21:02:00,52.0,51.0,30.09,SE,135,0.0,1.0,95,0.00,,,0.07,,2013-06-12 04:02:00,
2013-06-11 21:12:00,52.0,51.0,30.09,SE,135,0.0,1.0,95,0.00,,,0.07,,2013-06-12 04:12:00,
2013-06-11 21:22:00,52.0,51.0,30.09,North,-999,0.0,0.0,95,0.00,,,0.07,,2013-06-12 04:22:00,
2013-06-11 21:33:00,52.0,51.0,30.09,North,-999,0.0,0.0,96,0.00,,,0.07,,2013-06-12 04:33:00,
2013-06-11 21:42:00,52.0,51.0,30.10,North,-999,0.0,0.0,96,0.00,,,0.07,,2013-06-12 04:42:00,
2013-06-11 21:52:00,52.0,51.0,30.10,North,-999,0.0,0.0,96,0.00,,,0.07,,2013-06-12 04:52:00,
2013-06-11 22:02:00,50.0,49.0,30.10,North,-999,0.0,0.0,96,0.00,,,0.07,,2013-06-12 05:02:00,
2013-06-11 22:12:00,50.0,49.0,30.11,North,-999,0.0,0.0,97,0.00,,,0.07,,2013-06-12 05:12:00,
2013-06-11 22:22:00,50.0,49.0,30.11,North,-999,0.0,0.0,97,0.00,,,0.07,,2013-06-12 05:22:00,
2013-06-11 22:32:00,49.0,48.0,30.11,North,-999,0.0,0.0,97,0.00,,,0.07,,2013-06-12 05:32:00,
2013-06-11 22:42:00,49.0,48.0,30.11,North,-999,0.0,0.0,97,0.00,,,0.07,,2013-06-12 05:42:00,
2013-06-11 22:52:00,49.0,48.0,30.11,North,-999,0.0,0.0,97,0.00,,,0.07,,2013-06-12 05:52:00,
2013-06-11 23:02:00,48.0,47.0,30.12,North,-999,0.0,0.0,98,0.00,,,0.07,,2013-06-12 06:02:00,
2013-06-11 23:12:00,48.0,47.0,30.12,North,-999,0.0,0.0,98,0.00,,,0.07,,2013-06-12 06:12:00,
2013-06-11 23:21:00,48.0,47.0,30.12,North,-999,0.0,0.0,98,0.00,,,0.07,,2013-06-12 06:21:00,
2013-06-11 23:32:00,47.0,46.0,30.12,North,-999,0.0,0.0,98,0.00,,,0.07,,2013-06-12 06:32:00,
2013-06-11 23:42:00,47.0,46.0,30.12,North,-999,0.0,0.0,98,0.00,,,0.07,,2013-06-12 06:42:00,
2013-06-11 23:52:00,47.0,46.0,30.12,North,-999,0.0,0.0,98,0.00,,,0.07,,2013-06-12 06:52:00,